Regional Weather Roundup
Issued by NWS

Home | Current Version | Previous Version | Text Only | Print | Product List | Glossary Off
Versions: 1 2 3 4 5 6 7 8 9 10 11 12 13 14 15 16 17 18 19 20 21 22 23 24 25 26 27 28 29 30 31 32 33 34 35 36 37 38 39 40 41 42 43 44 45 46 47 48 49 50

603
ASUS45 KSLC 162310
RWRUT

UTAH REGIONAL WEATHER ROUNDUP
NATIONAL WEATHER SERVICE SALT LAKE CITY UT
400 PM MST TUE JAN 16 2018

UTZ001>011-023>025-170000-

NORTHERN UTAH

CITY           SKY/WX    TMP DP  RH WIND       PRES   REMARKS
BRIGHAM CITY   MOSUNNY   46  22  38 CALM      30.30R
DUGWAY         PTSUNNY   44  29  54 CALM      30.27F
HILL AFB       MOSUNNY   44  20  38 E6        30.28R
LOGAN          SUNNY     43  24  47 N6        30.29S
OGDEN          MOSUNNY   45  24  43 NW6       30.27S
SALT LAKE CITY PTSUNNY   49  25  39 NW9       30.27S
TOOELE VALLEY  PTSUNNY   41  32  70 CALM      30.29S
WENDOVER       PTSUNNY   40  29  64 SE3       30.29R
HEBER CITY       N/A     43  14  31 CALM      30.24F
WEST JORDAN    MOSUNNY   43  30  60 NW10      30.27S

$$

UTZ011>015-024>027-170000-

CENTRAL/NORTHEAST UTAH

CITY           SKY/WX    TMP DP  RH WIND       PRES   REMARKS
PROVO AIRPORT  SUNNY     41  24  51 NW5       30.27S
MOAB/CANYONLAN SUNNY     44  15  31 N3        30.31F
DELTA          PTSUNNY   45  30  57 N3        30.27S
PRICE          SUNNY     42  21  43 E3        30.30S
ROOSEVELT      SUNNY     34   5  29 CALM      30.36F
VERNAL         SUNNY     35   6  29 E3        30.33F

$$

UTZ013>016-019>022-027-170000-

SOUTHERN UTAH

CITY           SKY/WX    TMP DP  RH WIND       PRES   REMARKS
BRYCE CANYON   MOSUNNY   39  24  55 SE7       30.29S WCI  34
CEDAR CITY     MOSUNNY   49  30  48 N3        30.23F
MILFORD        PTSUNNY   48  31  51 CALM      30.24S
ST GEORGE      PTCLDY    57  34  41 S3        30.21F
HANKSVILLE     SUNNY     45  12  26 CALM      30.34F
BLANDING         N/A     41  19  40 SW3       30.38S

$$

REGIONAL REPORTS     COLORADO/ARIZONA

CITY           SKY/WX    TMP DP  RH WIND       PRES   REMARKS
CRAIG, CO      SUNNY     28   6  39 E5        30.32F WCI  23
GRAND JUNCTION SUNNY     43  14  31 S5        30.31F
RIFLE, CO      SUNNY     40  10  29 CALM      30.31F
MONTROSE, CO   SUNNY     39  14  36 NW3       30.32F
CORTEZ, CO     SUNNY     42  22  44 S8        30.30F
COLORADO CITY    N/A     57  27  30 SE3       30.26S
PAGE, AZ       MOSUNNY   50  15  24 NE5       30.27F
GRAND CANYON   CLOUDY    47  20  34 NE9       30.27R
KINGMAN, AZ    PTSUNNY   61  32  33 N13       30.17F
FLAGSTAFF, AZ  PTSUNNY   44  22  41 E7        30.28R

$$

REGIONAL REPORTS    NEVADA/IDAHO/WYOMING

CITY           SKY/WX    TMP DP  RH WIND       PRES   REMARKS
LAS VEGAS, NV  PTSUNNY   63  32  31 E3        30.18R
ELY, NY        MOSUNNY   50  28  42 W3        30.27R
ELKO, NV       MOSUNNY   46  35  65 E3        30.27S
POCATELLO, ID  PTSUNNY   41  27  57 N6        30.28S
BURLEY, ID     PTSUNNY   43  31  62 W10G17    30.27R
FORT BRIDGER,  CLEAR     32  10  40 W3        30.32S
EVANSTON, WY   SUNNY     36  12  37 S5        30.27F WCI  32
ROCK SPRINGS,  SUNNY     30   6  36 W6        30.27F WCI  24

$$




USA.gov is the U.S. government's official web portal to all federal, state and local government web resources and services.